Total_Precipitation_Accumulation
0.00 0.00 0.00 0.00 0.01 0.01 0.01 0.01 0.01 0.01 0.01 0.00 0.00 0.00 0.00 0.00 0.00 0.00 0.00 0.00 0.00 0.00 0.02 0.04 0.07 0.08 0.11 0.13 0.15 0.15 0.15 0.14 0.13 0.13 0.13 0.13 0.13 0.13 0.14 0.15 0.16 0.16 0.17
0.00 0.00 0.00 0.01 0.01 0.01 0.01 0.01 0.01 0.01 0.00 0.00 0.00 0.00 0.00 0.00 0.00 0.00 0.00 0.00 0.00 0.00 0.01 0.03 0.07 0.11 0.13 0.16 0.19 0.20 0.18 0.16 0.15 0.14 0.14 0.15 0.15 0.15 0.16 0.16 0.17 0.17 0.18
0.00 0.00 0.01 0.01 0.01 0.01 0.01 0.01 0.01 0.00 0.00 0.00 0.00 0.00 0.00 0.00 0.00 0.00 0.00 0.00 0.00 0.00 0.01 0.03 0.06 0.10 0.13 0.16 0.20 0.24 0.25 0.22 0.20 0.18 0.18 0.18 0.18 0.18 0.18 0.19 0.20 0.20 0.21
0.01 0.01 0.01 0.02 0.01 0.01 0.01 0.01 0.01 0.01 0.00 0.00 0.00 0.00 0.00 0.00 0.00 0.00 0.00 0.00 0.00 0.00 0.00 0.01 0.03 0.06 0.10 0.13 0.17 0.25 0.32 0.31 0.26 0.23 0.23 0.23 0.24 0.23 0.23 0.24 0.25 0.25 0.25
0.06 0.04 0.03 0.03 0.03 0.03 0.02 0.02 0.01 0.01 0.01 0.01 0.02 0.01 0.01 0.01 0.01 0.01 0.00 0.01 0.01 0.01 0.01 0.01 0.02 0.03 0.05 0.08 0.13 0.24 0.34 0.38 0.35 0.30 0.28 0.28 0.30 0.30 0.32 0.34 0.35 0.36 0.36
0.15 0.11 0.09 0.08 0.06 0.05 0.04 0.04 0.03 0.02 0.02 0.03 0.04 0.03 0.01 0.01 0.01 0.01 0.01 0.01 0.01 0.01 0.02 0.02 0.02 0.02 0.03 0.05 0.09 0.14 0.22 0.32 0.36 0.35 0.33 0.33 0.35 0.37 0.40 0.43 0.45 0.46 0.49
0.30 0.26 0.21 0.17 0.14 0.11 0.09 0.08 0.08 0.07 0.06 0.07 0.07 0.04 0.02 0.02 0.01 0.01 0.01 0.01 0.02 0.03 0.03 0.03 0.04 0.04 0.05 0.06 0.06 0.08 0.11 0.20 0.30 0.38 0.39 0.39 0.41 0.44 0.49 0.55 0.59 0.59 0.60
0.45 0.37 0.30 0.27 0.25 0.21 0.16 0.15 0.15 0.14 0.12 0.15 0.14 0.13 0.06 0.02 0.01 0.02 0.02 0.02 0.03 0.04 0.04 0.05 0.05 0.06 0.06 0.07 0.07 0.07 0.08 0.12 0.21 0.37 0.45 0.46 0.48 0.51 0.57 0.65 0.71 0.75 0.79
0.61 0.51 0.46 0.42 0.38 0.32 0.26 0.26 0.27 0.26 0.22 0.21 0.21 0.23 0.16 0.08 0.05 0.03 0.04 0.05 0.06 0.05 0.06 0.07 0.07 0.07 0.07 0.07 0.08 0.09 0.10 0.13 0.19 0.32 0.47 0.57 0.61 0.63 0.68 0.76 0.84 0.92 0.97
0.70 0.68 0.60 0.53 0.48 0.44 0.39 0.39 0.39 0.37 0.35 0.28 0.23 0.20 0.21 0.18 0.18 0.10 0.05 0.06 0.08 0.07 0.08 0.08 0.08 0.08 0.07 0.08 0.10 0.14 0.19 0.24 0.30 0.39 0.55 0.69 0.80 0.91 1.01 1.09 1.13 1.21 1.22
0.62 0.63 0.62 0.60 0.54 0.50 0.48 0.46 0.45 0.46 0.43 0.39 0.34 0.30 0.29 0.25 0.22 0.22 0.13 0.08 0.10 0.10 0.10 0.09 0.08 0.08 0.09 0.11 0.14 0.20 0.29 0.38 0.46 0.57 0.76 0.95 1.09 1.23 1.38 1.49 1.54 1.59 1.57
0.59 0.57 0.56 0.54 0.53 0.51 0.50 0.51 0.54 0.56 0.57 0.52 0.45 0.38 0.36 0.33 0.29 0.28 0.24 0.16 0.15 0.14 0.13 0.12 0.12 0.13 0.15 0.18 0.23 0.32 0.40 0.47 0.58 0.73 0.96 1.17 1.30 1.39 1.48 1.58 1.65 1.68 1.70
0.45 0.45 0.46 0.47 0.50 0.52 0.53 0.55 0.54 0.55 0.58 0.56 0.53 0.48 0.44 0.39 0.37 0.39 0.39 0.31 0.25 0.21 0.20 0.21 0.23 0.27 0.31 0.35 0.40 0.48 0.50 0.55 0.63 0.72 0.90 1.11 1.20 1.24 1.32 1.44 1.61 1.71 1.74
0.49 0.47 0.46 0.49 0.51 0.52 0.50 0.50 0.50 0.49 0.51 0.52 0.52 0.52 0.49 0.45 0.43 0.44 0.48 0.54 0.54 0.45 0.40 0.40 0.41 0.45 0.48 0.51 0.56 0.60 0.55 0.60 0.60 0.64 0.75 0.89 0.95 0.95 0.96 1.05 1.20 1.36 1.48
0.41 0.38 0.40 0.41 0.40 0.40 0.42 0.44 0.44 0.42 0.43 0.43 0.44 0.46 0.46 0.44 0.46 0.50 0.57 0.67 0.79 0.77 0.64 0.55 0.56 0.58 0.60 0.60 0.63 0.56 0.48 0.55 0.58 0.58 0.62 0.67 0.70 0.68 0.66 0.73 0.80 0.90 1.01
0.35 0.32 0.32 0.32 0.30 0.29 0.29 0.30 0.31 0.31 0.32 0.32 0.34 0.37 0.40 0.41 0.44 0.49 0.56 0.64 0.76 0.87 0.82 0.64 0.55 0.53 0.53 0.52 0.55 0.47 0.42 0.49 0.48 0.49 0.51 0.53 0.55 0.54 0.54 0.57 0.61 0.65 0.68
0.28 0.28 0.27 0.26 0.24 0.22 0.20 0.20 0.20 0.20 0.22 0.23 0.25 0.29 0.33 0.35 0.39 0.44 0.48 0.54 0.61 0.69 0.74 0.64 0.53 0.49 0.47 0.44 0.42 0.37 0.34 0.33 0.33 0.40 0.42 0.43 0.43 0.44 0.46 0.47 0.50 0.54 0.56
0.20 0.19 0.18 0.16 0.15 0.15 0.14 0.13 0.13 0.14 0.15 0.17 0.19 0.22 0.24 0.27 0.31 0.35 0.40 0.44 0.48 0.50 0.54 0.53 0.44 0.40 0.36 0.32 0.28 0.24 0.22 0.21 0.20 0.25 0.27 0.28 0.29 0.30 0.30 0.31 0.35 0.39 0.43
0.12 0.12 0.10 0.09 0.10 0.09 0.09 0.09 0.09 0.11 0.11 0.13 0.15 0.18 0.21 0.25 0.30 0.33 0.34 0.35 0.35 0.35 0.36 0.36 0.30 0.25 0.22 0.20 0.19 0.15 0.12 0.10 0.09 0.10 0.11 0.12 0.13 0.16 0.20 0.23 0.25 0.26 0.28
0.08 0.09 0.08 0.07 0.07 0.07 0.08 0.09 0.10 0.12 0.15 0.18 0.21 0.25 0.29 0.30 0.31 0.30 0.29 0.28 0.28 0.27 0.26 0.27 0.28 0.25 0.21 0.15 0.13 0.10 0.07 0.05 0.05 0.05 0.06 0.08 0.10 0.11 0.12 0.12 0.12 0.11 0.11
0.07 0.07 0.08 0.09 0.11 0.13 0.15 0.17 0.19 0.23 0.28 0.33 0.36 0.37 0.36 0.35 0.33 0.29 0.27 0.26 0.24 0.24 0.29 0.33 0.32 0.24 0.16 0.10 0.07 0.05 0.06 0.06 0.06 0.06 0.07 0.06 0.06 0.05 0.03 0.03 0.03 0.04 0.06
0.10 0.10 0.12 0.15 0.20 0.25 0.35 0.32 0.29 0.31 0.35 0.35 0.33 0.30 0.27 0.25 0.21 0.20 0.19 0.19 0.23 0.30 0.39 0.41 0.33 0.20 0.09 0.05 0.05 0.09 0.14 0.21 0.16 0.06 0.07 0.04 0.03 0.03 0.01 0.01 0.02 0.05 0.08
0.22 0.24 0.28 0.33 0.38 0.44 0.47 0.40 0.35 0.29 0.28 0.26 0.23 0.20 0.17 0.14 0.13 0.11 0.10 0.15 0.20 0.26 0.27 0.23 0.16 0.09 0.08 0.08 0.17 0.27 0.26 0.25 0.16 0.04 0.06 0.06 0.03 0.04 0.02 0.02 0.04 0.05 0.06
0.45 0.50 0.54 0.57 0.56 0.55 0.48 0.37 0.30 0.23 0.20 0.18 0.14 0.11 0.09 0.08 0.07 0.09 0.15 0.21 0.14 0.08 0.06 0.05 0.06 0.08 0.09 0.11 0.19 0.29 0.25 0.17 0.07 0.04 0.06 0.10 0.05 0.04 0.02 0.02 0.02 0.04 0.05
0.62 0.61 0.59 0.54 0.48 0.43 0.34 0.23 0.16 0.13 0.10 0.08 0.06 0.04 0.05 0.05 0.06 0.18 0.26 0.22 0.08 0.02 0.01 0.04 0.08 0.07 0.07 0.06 0.07 0.19 0.27 0.28 0.17 0.03 0.03 0.08 0.06 0.05 0.03 0.02 0.01 0.03 0.06
0.56 0.50 0.42 0.34 0.27 0.20 0.15 0.10 0.07 0.05 0.03 0.02 0.02 0.03 0.03 0.04 0.13 0.24 0.19 0.13 0.05 0.03 0.06 0.04 0.02 0.01 0.00 0.00 0.03 0.14 0.41 0.65 0.43 0.20 0.04 0.17 0.17 0.18 0.25 0.04 0.02 0.05 0.07